Dewpoint
48 36 20 19 20 22 21 20 24 42 46 49 48 48 50 54 54 52 60 63 63 64 64 66 71 71 71 71 71 71 69 69 68 68 67 66 65 64 64 65 65 62 60 59 58 60 60 61 61
31 17 15 23 21 17 18 22 31 50 51 48 48 47 47 53 59 61 61 63 64 64 64 66 70 71 71 71 71 70 69 68 67 66 66 64 64 64 63 63 64 62 60 58 60 60 60 61 61
27 15 19 17 19 16 19 35 46 45 45 45 44 48 48 55 58 61 64 64 65 64 64 68 70 70 71 71 70 70 69 69 67 67 64 63 63 62 62 63 64 63 60 60 60 61 61 62 62
18 13 18 17 17 15 18 47 46 44 44 44 45 44 51 57 55 61 64 65 65 66 68 69 69 70 70 70 70 69 68 68 68 66 65 62 61 61 62 64 64 62 61 61 61 61 62 62 62
17 17 13 14 15 16 21 43 41 44 44 42 41 45 46 55 55 62 64 65 64 66 68 68 68 69 70 70 69 69 68 68 68 66 65 63 61 61 62 63 63 62 61 61 62 62 62 62 61
11 15 14 13 14 28 30 42 40 44 41 41 41 43 53 59 57 57 64 66 67 67 67 67 69 69 69 69 69 68 68 68 67 66 65 63 62 63 62 62 62 62 62 62 62 62 61 60 60
17 14 13 13 24 32 37 40 43 40 36 37 42 47 56 60 61 64 65 63 68 67 66 65 66 68 69 68 67 67 67 67 67 67 65 65 65 65 64 63 63 63 63 62 62 60 60 59 59
14 15 14 17 31 33 39 39 40 38 39 41 44 42 52 59 63 65 63 66 65 66 64 63 64 63 65 65 66 66 66 66 66 65 64 64 63 63 64 64 63 62 62 61 59 58 58 58 57
19 16 12 30 35 39 41 37 38 39 37 41 47 49 56 62 63 63 64 64 64 64 57 57 57 59 58 58 62 64 66 65 64 63 63 61 56 58 59 62 61 60 60 59 57 57 56 57 57
15 14 14 35 42 47 42 37 34 34 32 34 46 54 60 61 62 62 61 61 62 56 56 57 59 59 58 51 58 58 58 58 59 58 60 59 59 60 58 59 60 59 58 58 56 56 55 55 46
17 16 20 18 31 43 33 31 34 33 35 39 42 55 60 60 59 59 59 59 54 55 56 56 59 60 56 56 55 54 57 59 60 61 60 62 60 60 59 57 55 56 56 52 52 50 48 51 49
15 16 18 17 21 31 32 32 33 37 46 37 43 57 60 59 58 57 56 51 49 52 52 53 55 57 56 54 54 56 56 58 59 60 62 61 59 60 58 54 54 55 51 53 51 49 51 50 48
15 17 14 18 23 29 30 32 32 36 35 34 49 57 57 57 56 53 45 46 49 49 50 51 55 57 58 58 59 58 60 64 65 65 63 62 59 60 57 56 53 52 50 49 49 48 47 47 46
19 17 14 23 27 29 30 32 32 37 38 43 52 53 53 53 49 43 44 46 49 49 52 54 54 57 57 60 61 64 66 65 63 63 63 62 60 61 57 55 51 49 48 48 47 47 43 41 41
14 13 15 15 23 27 31 32 37 38 39 44 49 48 46 44 40 40 44 48 49 50 54 57 59 59 60 60 60 60 59 58 60 61 60 60 59 58 55 51 48 48 48 49 43 41 39 37 35
13 14 17 19 24 25 27 22 30 36 39 39 40 40 36 35 35 40 43 46 50 53 55 58 59 60 60 60 59 58 57 57 57 58 58 57 53 52 53 49 48 48 45 42 40 37 35 35 34
13 10 15 19 21 21 24 17 27 33 35 36 37 37 35 34 35 39 41 43 48 54 58 59 60 59 59 58 58 57 57 57 52 53 50 50 49 49 49 47 45 44 39 39 38 35 35 33 32
13 13 11 10 13 16 13 17 23 31 33 37 37 38 39 38 37 43 47 46 46 54 59 60 59 61 59 59 58 56 55 52 50 48 46 47 47 47 46 43 44 41 38 38 37 38 35 34 32
12 9 6 8 9 12 11 17 23 31 31 35 38 39 40 41 43 48 51 50 50 57 59 59 59 59 59 56 55 53 51 47 47 45 47 48 47 43 43 40 40 40 36 37 40 38 38 35 35
11 15 14 15 12 15 10 15 21 27 30 31 34 39 41 42 46 50 53 54 54 58 59 60 59 59 58 52 54 54 50 47 47 46 48 47 44 41 39 41 39 39 37 38 39 40 37 36 35
15 17 22 17 18 15 18 17 24 28 32 34 36 37 40 43 46 50 53 56 57 58 58 59 58 58 56 56 51 49 48 47 45 45 46 44 42 40 39 39 39 39 39 37 39 39 38 33 34
20 23 20 18 19 15 19 12 21 28 32 37 39 41 41 43 46 50 53 56 57 57 59 57 55 54 52 50 48 48 43 42 44 44 44 44 43 41 38 37 39 41 39 39 39 35 39 37 33
27 25 21 18 16 20 19 12 23 27 28 32 36 41 44 46 49 51 53 56 57 57 56 54 53 50 48 48 47 47 46 47 46 46 45 44 42 40 38 39 40 41 39 40 42 42 42 38 36
28 26 24 22 19 21 18 16 14 22 25 30 35 40 44 48 50 49 51 50 50 53 53 51 49 47 48 48 49 48 47 44 43 43 40 37 35 35 37 37 40 40 39 39 39 40 38 39 40
25 24 25 24 22 22 23 19 16 23 29 29 36 41 46 48 47 45 45 45 47 50 50 49 46 46 47 48 48 47 45 43 39 39 37 36 35 35 37 39 37 35 35 35 36 38 39 40 41
25 23 24 16 17 17 23 13 21 31 32 34 38 42 45 46 46 43 42 42 45 47 48 47 46 46 47 47 45 44 41 39 38 37 37 36 35 34 35 33 33 33 32 33 35 35 38 38 41
25 21 27 24 33 26 14 16 29 30 31 35 39 42 44 44 44 41 41 43 44 46 48 48 46 44 45 44 43 42 44 39 36 37 37 34 34 30 31 33 32 32 32 33 34 34 36 39 39
27 27 24 24 20 15 9 10 16 26 28 33 38 42 42 43 41 41 42 44 45 46 48 49 47 44 42 41 42 40 41 37 35 35 33 32 32 32 31 31 31 33 33 33 33 35 37 37 38
28 26 24 23 25 21 13 14 20 21 27 31 37 40 42 42 41 41 42 44 46 46 47 47 44 41 41 39 39 42 36 34 33 33 32 30 32 31 29 30 32 32 31 35 37 36 35 33 33
27 25 26 27 20 25 28 17 19 24 25 30 33 38 41 41 40 42 43 45 46 45 45 43 40 39 37 36 39 37 34 30 31 31 29 31 31 30 30 31 31 32 32 33 33 33 33 32 30
Lifted_Index
7 7 7 6 4 3 1 0 -1 -2 -2 -1 -1 -2 -2 -3 -4 -4 -4 -4 -5 -4 -4 -4 -5 -5 -5 -5 -4 -4 -3 -4 -3 -3 -2 -1 -1 -0 -0 -0 0 1 2 2 2 2 1 1 1
7 7 7 5 3 1 0 -0 -1 -1 -1 -1 -1 -1 -2 -3 -4 -4 -4 -4 -5 -5 -4 -4 -4 -5 -5 -5 -4 -4 -4 -4 -3 -2 -2 -1 -0 0 0 0 0 1 2 2 2 2 1 1 1
6 6 5 4 2 0 -0 -1 -1 -1 -1 -0 -0 -0 -1 -2 -3 -4 -4 -4 -5 -4 -4 -4 -4 -5 -6 -5 -5 -4 -4 -4 -3 -2 -1 0 1 1 1 1 0 1 1 2 2 1 1 1 1
5 5 4 2 1 -0 -1 -1 -2 -1 -1 -0 -0 -0 -0 -1 -1 -3 -4 -4 -4 -4 -4 -4 -4 -5 -6 -6 -5 -4 -4 -4 -3 -2 -0 1 1 1 1 1 1 1 1 1 1 1 1 1 1
4 3 2 1 -0 -0 -1 -2 -2 -1 -1 -1 -0 -0 -0 -0 -0 -2 -3 -4 -4 -4 -4 -4 -5 -6 -6 -6 -5 -4 -4 -3 -3 -2 -0 1 1 1 1 1 1 1 1 1 1 1 1 1 2
3 2 1 -0 -1 -1 -2 -2 -2 -1 -1 -0 -0 -1 -1 -1 -1 -1 -2 -2 -2 -3 -4 -5 -6 -7 -6 -6 -5 -4 -3 -3 -2 -1 -0 1 1 1 1 1 1 0 0 0 1 1 2 2 3
2 1 0 -0 -1 -2 -2 -2 -1 -1 -1 -0 -0 -1 -2 -3 -2 -1 -1 -1 -2 -3 -5 -6 -7 -6 -6 -5 -4 -3 -3 -2 -2 -1 -0 0 1 1 0 0 0 0 0 0 1 2 3 3 4
2 1 0 -1 -1 -2 -2 -1 -1 -1 -1 -1 -1 -2 -3 -3 -3 -2 -1 -1 -2 -4 -5 -6 -5 -5 -4 -4 -3 -2 -2 -2 -1 -0 0 1 1 0 0 -0 0 0 1 1 2 3 4 5 5
2 1 -0 -1 -1 -1 -1 -1 -0 -0 -0 -1 -2 -3 -4 -4 -4 -3 -3 -3 -4 -5 -5 -5 -4 -3 -3 -2 -1 -1 -1 -1 -0 0 0 0 0 -0 -0 0 1 1 2 2 3 4 5 5 5
2 1 0 -1 -1 -1 -1 -1 0 0 0 -0 -2 -4 -5 -6 -5 -5 -5 -5 -5 -4 -4 -4 -3 -2 -1 -0 -0 -0 -0 -1 -1 -1 -1 -1 -1 -1 -1 0 1 2 2 3 3 4 5 5 5
2 1 1 -0 -1 -1 -1 -1 -0 0 0 -1 -3 -5 -6 -6 -6 -5 -5 -5 -4 -3 -3 -2 -2 -1 -0 0 0 -0 -1 -1 -2 -2 -2 -3 -3 -2 -2 -1 0 1 2 2 3 4 4 4 5
2 2 1 1 0 -0 -0 -1 -1 -1 -1 -2 -4 -6 -7 -6 -6 -5 -4 -3 -2 -2 -1 -1 -1 -1 -0 -0 -1 -1 -2 -3 -3 -3 -3 -3 -3 -3 -2 -1 -0 0 1 2 3 4 4 5 5
2 2 2 1 1 0 -0 -1 -2 -2 -2 -2 -5 -6 -6 -6 -5 -4 -3 -2 -1 -1 -1 -0 -0 -1 -1 -1 -2 -2 -3 -3 -3 -3 -3 -3 -3 -3 -2 -1 0 1 2 3 4 5 5 5 5
2 2 2 1 0 -0 -1 -2 -2 -2 -2 -3 -5 -5 -5 -4 -3 -2 -1 -1 -1 -1 -1 -1 -1 -1 -2 -2 -2 -2 -2 -2 -2 -2 -2 -2 -2 -1 -1 0 1 2 4 5 5 6 6 6 6
2 2 2 1 -0 -1 -1 -2 -2 -2 -3 -3 -4 -4 -3 -2 -1 -0 -0 -1 -1 -2 -2 -2 -2 -2 -2 -2 -1 -1 -0 -0 -0 -0 -0 -1 -1 -0 0 1 2 3 5 6 6 7 7 7 8
2 1 1 0 -1 -1 -1 -1 -1 -2 -2 -3 -3 -2 -1 -0 0 0 -0 -1 -2 -2 -3 -3 -2 -2 -1 -1 -0 1 2 2 1 1 0 0 1 1 2 2 4 5 6 7 7 8 9 9 9
1 1 0 -0 -0 -0 -0 -0 -0 -1 -2 -2 -2 -2 -1 -0 0 0 -0 -1 -2 -3 -3 -3 -2 -1 -1 -0 0 1 2 2 2 1 1 2 2 3 4 5 6 7 8 8 9 9 10 10 10
0 0 -0 -0 0 1 0 0 -0 -1 -2 -3 -3 -2 -2 -1 -1 -1 -1 -1 -2 -3 -3 -3 -2 -1 -1 -0 1 2 3 2 2 3 3 4 4 5 6 6 7 7 8 9 9 9 10 10 10
-0 -0 -0 0 1 1 0 0 -0 -1 -2 -2 -3 -3 -3 -2 -2 -2 -2 -2 -2 -3 -3 -3 -2 -1 -1 0 1 2 3 3 3 4 4 5 6 6 6 7 7 8 8 8 8 9 9 9 10
-0 -0 -0 0 1 1 0 -0 -0 -1 -1 -2 -2 -3 -3 -3 -3 -3 -3 -3 -3 -3 -3 -3 -2 -1 -1 0 1 2 3 4 4 5 5 6 6 7 7 7 7 8 8 8 8 9 9 10 10
-0 -0 -0 0 0 0 -0 -0 -0 -1 -1 -2 -2 -3 -3 -3 -3 -3 -4 -4 -4 -4 -3 -3 -2 -1 -0 1 2 3 4 4 5 5 5 6 7 8 8 8 8 8 8 8 9 9 9 10 10
-0 -0 -0 -0 -0 0 -0 -0 -0 -1 -1 -1 -2 -2 -3 -3 -3 -4 -4 -4 -4 -4 -3 -2 -1 -0 1 2 3 4 4 4 5 5 6 6 7 8 8 8 8 8 8 8 8 9 9 10 10
-1 -1 -1 -1 -0 -0 -0 -0 -0 -1 -1 -1 -1 -2 -2 -3 -3 -4 -4 -4 -3 -3 -2 -1 0 1 2 3 4 4 4 4 5 5 6 7 8 8 8 8 8 8 8 8 8 9 9 10 10
-1 -1 -1 -1 -0 -0 -0 -0 -0 -1 -1 -1 -1 -1 -2 -3 -3 -2 -2 -2 -1 -1 -0 1 2 2 3 4 4 4 4 5 5 6 7 8 8 8 9 9 9 9 9 9 9 9 10 10 10
-1 -1 -1 -1 -0 -0 -0 -0 -0 -0 -0 -0 -1 -1 -2 -2 -1 -1 0 1 1 1 1 2 3 3 4 4 4 5 5 6 7 7 8 8 9 9 9 9 10 10 10 11 10 10 10 10 10
-1 -1 -1 -1 -0 -0 0 0 -0 0 0 0 -0 -1 -1 -1 -0 1 2 2 2 2 2 3 3 4 4 4 5 6 6 7 8 8 8 9 9 10 10 11 11 11 11 11 11 10 10 9 9
-1 -1 -0 -0 -0 0 0 0 -0 0 1 0 -0 -1 -1 -0 1 2 2 2 2 2 3 3 3 4 5 5 6 6 7 8 8 9 9 10 10 11 11 12 12 12 12 12 11 10 9 9 9
-0 -0 0 0 0 0 0 0 0 1 1 1 -0 -1 -0 0 1 2 2 2 2 2 3 3 4 5 6 6 7 7 8 9 9 10 10 11 11 11 12 12 12 12 12 11 10 10 9 9 9
-0 0 0 1 1 1 0 1 1 2 2 1 0 -0 -0 0 1 1 1 2 2 2 3 4 5 6 6 6 7 8 9 10 10 10 11 11 11 12 12 12 12 11 11 11 10 10 10 10 9
0 0 0 1 1 1 1 1 2 2 2 1 1 -0 -0 0 1 1 1 1 2 2 3 4 5 6 6 6 6 8 9 10 10 11 11 11 12 12 12 12 12 11 11 11 11 10 10 10 9